Location: Boulder Knolls Observatory
(33.2250°N, 117.1147°W)
Time: 03:31:21
(UTC-08:00)

Tiangong 2 - Visible Passes

Search period start: 25 November 2017 00:00
Search period end: 05 December 2017 00:00
Orbit: 386 x 392 km, 42.8° (Epoch: 25 November)

Date Brightness Start Highest point End Pass type
(mag) Time Alt. Az. Time Alt. Az. Time Alt. Az.
25 Nov 1.9 05:46:12 10° SW 05:49:19 53° SE 05:52:27 10° ENE visible
26 Nov 3.1 04:49:40 18° S 04:51:12 26° SE 04:53:56 10° E visible
27 Nov 1.0 05:27:33 19° WSW 05:29:40 69° NNW 05:32:51 10° NE visible
28 Nov 3.0 04:32:46 30° E 04:32:46 30° E 04:34:35 10° ENE visible
29 Nov 1.8 05:10:06 36° NNW 05:10:06 36° NNW 05:13:02 10° NE visible
30 Nov 2.9 05:47:14 13° NW 05:48:56 18° NNW 05:51:14 10° NE visible
01 Dec 3.4 04:51:55 17° NNE 04:51:55 17° NNE 04:53:05 10° NE visible
02 Dec 3.2 05:28:47 14° NNW 05:29:26 15° N 05:31:24 10° NNE visible
03 Dec 3.3 06:06:28 10° NNW 06:08:30 16° N 06:10:32 10° NE visible
04 Dec 3.4 05:10:02 14° N 05:10:02 14° N 05:11:47 10° NE visible
